Location: Frydek-Mistek
(49.6830°N, 18.3330°E)
Time: 02:27:54
(UTC+01:00)

ISS - Pass Details

Date: 05 October 2020
Orbit: 417 x 420 km, 51.6° (Epoch: 25 October)

Event Time Altitude Azimuth Distance (km) Brightness Sun altitude
Rises 19:33:13 0° 286° (WNW) 2,369 2.0 -13.3°
Reaches altitude 10° 19:35:32 10° 273° (W) 1,502 0.5 -13.7°
Maximum altitude 19:38:21 25° 216° (SW) 898 -1.8 -14.1°
Enters shadow 19:41:03 11° 161° (SSE) 1,459 -1.3 -14.6°
